JFA38M LEIB-LEMD

Flight info

Callsign JFA38M
Flight time N/A
Altitude 29000
Route XOSTA M134 NINOT/N0431F310 M134 VLC N733 PRADO
Aircraft PC24/M-SBDGIRWY/LB2

Departure

Time 2026-04-30 14:50
Airport Ibiza Airport (LEIB)

Arrival

Time N/A
Airport Adolfo Suárez Madrid–Barajas Airport (LEMD)
Time Latitude Longitude Altitude Speed Heading
2026-04-30 14:23 38.87664 1.37575 23 ft 0 kts 240°
2026-04-30 14:47 38.87619 1.37538 23 ft 12 kts 176°
2026-04-30 14:47 38.87528 1.37443 23 ft 25 kts 243°
2026-04-30 14:47 38.87423 1.37196 25 ft 38 kts 242°
2026-04-30 14:47 38.87281 1.36861 25 ft 48 kts 244°
2026-04-30 14:48 38.87124 1.36468 22 ft 50 kts 241°
2026-04-30 14:48 38.86969 1.36089 22 ft 45 kts 243°
2026-04-30 14:48 38.86842 1.35790 22 ft 27 kts 238°
2026-04-30 14:48 38.86765 1.35790 22 ft 11 kts 121°
2026-04-30 14:49 38.86712 1.35915 23 ft 18 kts 115°
2026-04-30 14:49 38.86731 1.35980 24 ft 0 kts 60°
2026-04-30 14:49 38.86733 1.35983 23 ft 4 kts 59°
2026-04-30 14:49 38.86799 1.36137 24 ft 61 kts 63°
2026-04-30 14:50 38.87686 1.38191 513 ft 168 kts 61°
2026-04-30 14:50 38.88053 1.39652 1057 ft 184 kts 78°
2026-04-30 14:51 38.88556 1.42866 2092 ft 182 kts 74°
2026-04-30 14:51 38.88879 1.44470 2594 ft 185 kts 73°
2026-04-30 14:51 38.89570 1.47855 3603 ft 208 kts 73°
2026-04-30 14:52 38.89933 1.49662 4103 ft 214 kts 73°
2026-04-30 14:52 38.90742 1.53429 5089 ft 222 kts 65°
2026-04-30 14:52 38.91603 1.55075 5573 ft 224 kts 45°
2026-04-30 14:53 38.94115 1.57416 6545 ft 226 kts
2026-04-30 14:53 38.95604 1.57044 7013 ft 219 kts 326°
2026-04-30 14:54 38.97255 1.53995 7998 ft 214 kts 281°
2026-04-30 14:54 38.97968 1.50228 9022 ft 227 kts 283°
2026-04-30 14:55 38.98946 1.46037 10488 ft 260 kts 283°
2026-04-30 14:55 38.99470 1.43752 11224 ft 273 kts 283°
2026-04-30 14:55 39.00574 1.38926 12735 ft 287 kts 284°
2026-04-30 14:56 39.01711 1.33952 14351 ft 294 kts 284°
2026-04-30 14:56 39.02874 1.28847 15794 ft 301 kts 284°
2026-04-30 14:57 39.03464 1.26258 16532 ft 304 kts 284°
2026-04-30 14:57 39.04666 1.20970 17925 ft 310 kts 284°
2026-04-30 14:58 39.05891 1.15562 19227 ft 316 kts 284°
2026-04-30 14:58 39.06508 1.12836 19860 ft 318 kts 283°
2026-04-30 14:58 39.07755 1.07310 21192 ft 324 kts 283°
2026-04-30 14:59 39.09021 1.01691 22578 ft 329 kts 283°
2026-04-30 15:00 39.10969 0.93017 24012 ft 342 kts 283°
2026-04-30 15:00 39.12281 0.87159 24038 ft 339 kts 283°
2026-04-30 15:01 39.13620 0.81136 24054 ft 368 kts 283°
2026-04-30 15:01 39.14336 0.77931 24057 ft 375 kts 283°
2026-04-30 15:01 39.15778 0.71461 24058 ft 379 kts 283°
2026-04-30 15:02 39.16496 0.68226 24503 ft 372 kts 283°
2026-04-30 15:02 39.17190 0.65102 25225 ft 357 kts 283°
2026-04-30 15:03 39.19205 0.55957 27065 ft 356 kts 283°
2026-04-30 15:03 39.20585 0.49686 27682 ft 372 kts 283°
2026-04-30 15:04 39.22371 0.43266 28050 ft 390 kts 287°
2026-04-30 15:04 39.25327 0.33047 28061 ft 418 kts 287°
2026-04-30 15:05 39.28107 0.23493 28031 ft 332 kts 287°
2026-04-30 15:06 39.29707 0.17887 28043 ft 349 kts 287°
2026-04-30 15:06 39.31483 0.11745 28057 ft 380 kts 287°
2026-04-30 15:07 39.33378 0.05150 28056 ft 402 kts 287°
2026-04-30 15:08 39.37296 -0.08529 28054 ft 406 kts 287°
2026-04-30 15:09 39.42185 -0.25714 28054 ft 408 kts 287°
2026-04-30 15:10 39.46074 -0.39460 28056 ft 408 kts 287°
2026-04-30 15:11 39.53452 -0.59346 28058 ft 412 kts 296°
2026-04-30 15:13 39.60574 -0.75488 28053 ft 413 kts 296°
2026-04-30 15:14 39.70529 -0.98200 28057 ft 414 kts 296°
2026-04-30 15:17 39.83261 -1.27454 28060 ft 411 kts 296°
2026-04-30 15:19 39.94487 -1.53483 28079 ft 414 kts 296°